Location: Gouy
(50.0008°N, 3.2556°E)
Time: 21:25:43
(UTC+00:00)

Cosmos 1892 - Pass Details

Date: 23 May 2024
Orbit: 377 x 386 km, 82.5° (Epoch: 19 May)

Event Time Altitude Azimuth Distance (km) Brightness Sun altitude
Rises 01:14:18 0° 96° (E) 2,326 6.2 -16.6°
Enters shadow 02:12:10 -70° 193° (SSW) 12,567 9.6 -12.1°
Maximum altitude 02:49:48 41° 95° (E) 597 3.4 -8.3°
